This demonstration page uses our WeatherBlox Daily Observations layout. Learn more.

Left ArrowRight Arrow

Hourly Observations for January 2, 2017

Temp ( °F °C ) Dew Point ( °F °C ) Humidity (%) Winds ( mph kmh ) Pressure ( in mb ) Visibility ( mi km ) Precip ( " mm )
12:21 am 00:21 Cloudy 35 1.7 26 -3.3 70 70 ESE 8 13 29.83 1010 10 16 0.00 0.00
12:53 am 00:53 Cloudy 35 1.7 27 -2.8 72 72 ESE 7 11 29.82 1010 10 16 0.00 0.00
1:53 am 01:53 Cloudy 36 2.2 28 -2.2 73 73 ESE 9 15 29.79 1009 10 16 0.00 0.00
2:09 am 02:09 Cloudy 36 2.2 28 -2.2 73 73 ESE 12 19 29.83 1010 10 16 0.00 0.00
2:40 am 02:40 Cloudy 36 2 28 -2 75 75 ESE 12 19 29.83 1010 10 16 0.00 0.00
2:53 am 02:53 Cloudy 35 1.7 28 -2.2 76 76 SE 13 20 29.80 1009 10 16 0.00 0.00
3:53 am 03:53 Cloudy 35 1.7 29 -1.7 78 78 ESE 13 20 29.80 1009 10 16 0.00 0.00
4:53 am 04:53 Cloudy with Mist and Fog 34 1.1 31 -0.6 89 89 ESE 6 9 29.81 1010 4 6 0.00 0.00
5:14 am 05:14 Cloudy with Mist and Fog 34 1 32 0 93 93 E 5 7 29.83 1010 3 4 0.00 0.00
5:38 am 05:38 Cloudy with Mist and Fog 34 1 32 0 93 93 ENE 6 9 29.83 1010 2 2 0.00 0.00
5:53 am 05:53 Cloudy with Mist and Fog 33 0.6 32 0 96 96 E 8 13 29.79 1009 1 2 0.00 0.00
6:44 am 06:44 Cloudy with Mist and Fog 34 1 32 0 93 93 E 8 13 29.83 1010 1 1 0.00 0.00
6:53 am 06:53 Cloudy with Mist and Fog 33 0.6 32 0 96 96 ENE 8 13 29.81 1009 1 1 0.00 0.00
7:53 am 07:53 Mostly Cloudy with Mist and Fog 33 0.6 32 0 96 96 ENE 8 13 29.82 1010 1 1 0.00 0.00
8:53 am 08:53 Cloudy with Fog 33 0.6 32 0 96 96 NE 8 13 29.85 1011 1 1 0.00 0.00
9:53 am 09:53 Mostly Cloudy with Fog 33 0.6 32 0 96 96 ENE 9 15 29.85 1011 0 0 0.00 0.00
10:53 am 10:53 Cloudy with Fog 34 1.1 33 0.6 97 97 ENE 9 15 29.85 1011 1 1 0.00 0.00
11:53 am 11:53 Mostly Cloudy with Fog 35 1.7 34 1.1 96 96 ENE 10 17 29.82 1010 0 0 0.00 0.00
12:53 pm 12:53 Mostly Cloudy with Fog 35 1.7 34 1.1 96 96 NE 8 13 29.81 1009 0 0 0.00 0.00
1:53 pm 13:53 Mostly Cloudy with Fog 35 1.7 35 1.7 100 100 NNE 9 15 29.80 1009 5 8 0.00 0.00
2:53 pm 14:53 Mostly Cloudy with Fog 35 1.7 34 1.1 96 96 N 9 15 29.84 1011 0 0 0.00 0.00
3:53 pm 15:53 Mostly Cloudy with Fog 34 1.1 33 0.6 97 97 N 12 19 29.88 1012 0 0 0.00 0.00
4:53 pm 16:53 Cloudy with Mist and Fog 34 1.1 33 0.6 97 97 N 14 22 29.92 1013 1 2 0.00 0.00
5:25 pm 17:25 Cloudy with Mist and Fog 34 1.1 33 0.6 97 97 N 15 24 29.97 1015 2 3 0.00 0.00
5:49 pm 17:49 Cloudy with Mist and Fog 34 1 34 1 100 100 N 17 28 30.00 1016 4 6 0.00 0.00
5:53 pm 17:53 Cloudy with Mist and Fog 33 0.6 33 0.6 100 100 N 16 26 29.95 1014 4 6 0.00 0.00
6:13 pm 18:13 Cloudy with Mist and Fog 34 1 34 1 100 100 N 15 24 30.00 1016 4 6 0.00 0.00
6:53 pm 18:53 Cloudy with Mist and Fog 34 1.1 32 0 92 92 N 18 30 29.98 1015 5 8 0.00 0.00
7:53 pm 19:53 Cloudy 30 -1.1 26 -3.3 85 85 N 23 37 30.02 1017 10 16 0.00 0.00
7:59 pm 19:59 Cloudy 28 -2 27 -3 93 93 N 22 35 30.09 1019 10 16 0.00 0.00
8:46 pm 20:46 Cloudy 28 -2 25 -4 86 86 NNW 21 33 30.12 1020 10 16 0.00 0.00
8:53 pm 20:53 Cloudy 27 -2.8 23 -5 85 85 NNW 22 35 30.06 1018 10 16 0.00 0.00
9:48 pm 21:48 Cloudy 25 -4 19 -7 80 80 NNW 23 37 30.15 1021 10 16 0.00 0.00
9:53 pm 21:53 Cloudy 25 -3.9 19 -7.2 78 78 N 25 41 30.10 1019 10 16 0.00 0.00
10:53 pm 22:53 Cloudy 23 -5 17 -8.3 78 78 N 23 37 30.11 1020 10 16 0.00 0.00
11:53 pm 23:53 Cloudy 21 -6.1 15 -9.4 78 78 NNW 23 37 30.14 1021 10 16 0.00 0.00

Powered by AerisWeather